This is the latest recevied weather packets stored in our database for station/object DL6DJ-15. If no packets are shown the sender has not sent any weather packets the latest 10 day(s).
| Time | Temp. | Humidity | Pressure | Rain* | Wind** | Luminosity | Snow |
|---|---|---|---|---|---|---|---|
| 1787922048 | 26.67° C | 52% | 1015.5 hPa | - | - | - | - |
| 1787921747 | 26.67° C | 52% | 1015.5 hPa | - | - | - | - |
| 1787921447 | 26.67° C | 52% | 1015.5 hPa | - | - | - | - |
| 1787921147 | 27.22° C | 50% | 1015.3 hPa | - | - | - | - |
| 1787920846 | 27.78° C | 48% | 1015.3 hPa | - | - | - | - |
| 1787920546 | 27.78° C | 49% | 1015.5 hPa | - | - | - | - |
| 1787920245 | 27.22° C | 52% | 1015.7 hPa | - | - | - | - |
| 1787919945 | 27.22° C | 51% | 1015.8 hPa | - | - | - | - |
| 1787919644 | 26.67° C | 53% | 1016 hPa | - | - | - | - |
| 1787919344 | 26.67° C | 50% | 1015.7 hPa | - | - | - | - |
| 1787919044 | 27.22° C | 50% | 1015.2 hPa | - | - | - | - |
| 1787918743 | 27.22° C | 52% | 1015.3 hPa | - | - | - | - |
| 1787918443 | 27.78° C | 49% | 1015.4 hPa | - | - | - | - |
| 1787918142 | 27.78° C | 54% | 1015.2 hPa | - | - | - | - |
| 1787917842 | 26.67° C | 57% | 1015 hPa | - | - | - | - |
| 1787917542 | 26.11° C | 60% | 1014.9 hPa | - | - | - | - |
| 1787917241 | 25° C | 63% | 1015.2 hPa | - | - | - | - |
| 1787916941 | 25.56° C | 64% | 1015.3 hPa | - | - | - | - |
| 1787916641 | 25° C | 64% | 1015.4 hPa | - | - | - | - |
| 1787916340 | 23.33° C | 75% | 1015.8 hPa | - | - | - | - |
| 1787916040 | 21.67° C | 80% | 1016 hPa | - | - | - | - |
| 1787915739 | 20.56° C | 81% | 1016.2 hPa | - | - | - | - |
| 1787915439 | 20.56° C | 82% | 1016.4 hPa | - | - | - | - |
| 1787915139 | 21.11° C | 81% | 1016.8 hPa | - | - | - | - |
| 1787914839 | 21.11° C | 83% | 1016.6 hPa | - | - | - | - |
* Rain since midnight (hover to see other rain measurements)
** Current wind speed in m/s (hover to see current wind gust speed)